IRNSS-1D

Last updated on Tue Jul 01 2025 00:02:46 GMT+0000 (Coordinated Universal Time)

1 40547U 15018A 25181.57441144 -.00000277 00000+0 00000+0 0 9997 2 40547 26.7389 246.0901 0022986 191.9505 159.4464 1.00269727 37452
UTC large
Height (km)
Speed (km/s)
/
Latitude / Longitude
Inclination (degrees)
Orbital Period (minutes)
Azimuth
Elevation
Range (km)
Doppler Factor

Next 0 passes for location: London (51.5072 / 0.1276)

Sorry there are no passes over London.